Retour au catalogue

DELTA 1 DEB

ActifSSO
NORAD 7169·DEBRIS·🇺🇸 United States

Lancé Nov 6, 1973 depuis Vandenberg Space Force Base

Loading…

Prochains Passages (prochaines 24 heures)

TLE

FraisSource: Space-Track

Époque: Sep 14, 2026, 10:35 UTC

1 07169U 73086EH  26257.44126662  .00000171  00000-0  10722-2 0  9993
2 07169 101.4226 322.3394 0133075 251.5405 121.5039 12.68839369440798

Suivez DELTA 1 DEB en temps réel avec AllMySat

Download on the App Store